Total_Precipitation_Accumulation
0.00 0.00 0.01 0.02 0.05 0.09 0.11 0.13 0.18 0.19 0.20 0.26 0.37 0.59 0.80 0.91 1.09 1.23 1.22 1.34 1.74 2.14 2.44 2.71 2.86 3.09 3.41 3.72 3.98 4.25 4.62 4.73 4.50 4.45 4.38 4.27 3.95 3.80 3.47 3.07 2.71 2.64 2.61 2.76
0.00 0.01 0.01 0.01 0.03 0.05 0.07 0.10 0.16 0.19 0.22 0.29 0.34 0.55 0.76 0.79 0.99 1.13 1.23 1.42 1.58 1.78 2.26 2.53 2.55 2.79 3.03 3.55 4.04 4.37 4.36 4.23 3.97 4.08 4.37 4.59 4.56 4.06 3.46 3.10 2.96 2.63 2.52 2.59
0.01 0.03 0.01 0.01 0.02 0.03 0.08 0.11 0.16 0.19 0.22 0.33 0.43 0.87 0.98 0.88 0.97 1.06 1.15 1.32 1.46 1.64 1.83 2.14 2.17 2.26 2.48 2.98 3.49 3.63 3.48 3.40 3.25 3.31 3.64 3.86 4.08 3.82 3.47 3.16 2.91 2.62 2.51 2.45
0.01 0.02 0.01 0.02 0.03 0.03 0.06 0.06 0.08 0.14 0.26 0.45 0.51 0.99 1.22 1.21 1.28 1.12 1.15 1.21 1.47 1.62 1.67 1.83 1.88 1.93 1.98 2.11 2.37 2.56 2.74 2.82 2.81 2.85 3.04 3.24 3.39 3.33 3.17 3.05 2.81 2.55 2.29 2.22
0.02 0.02 0.02 0.04 0.04 0.03 0.05 0.05 0.07 0.13 0.24 0.45 0.49 0.71 1.19 1.44 1.47 1.22 1.15 1.16 1.30 1.32 1.41 1.54 1.62 1.62 1.68 1.83 2.04 2.26 2.56 2.69 2.76 2.72 2.80 3.01 3.28 3.25 2.99 2.76 2.70 2.54 2.31 2.07
0.03 0.04 0.05 0.05 0.05 0.04 0.05 0.07 0.13 0.20 0.31 0.71 0.62 0.69 1.11 1.32 1.18 1.13 1.05 0.99 1.06 1.05 1.19 1.39 1.49 1.54 1.57 1.66 1.89 2.12 2.35 2.33 2.43 2.48 2.49 2.53 2.66 2.74 2.59 2.46 2.41 2.24 2.05 1.91
0.12 0.11 0.09 0.06 0.06 0.06 0.08 0.14 0.50 0.91 1.09 1.05 0.64 0.74 1.20 1.09 0.93 0.95 0.96 0.98 1.04 1.02 1.01 1.19 1.36 1.37 1.51 1.62 1.73 1.88 2.02 2.11 2.10 2.12 2.06 2.04 2.11 2.25 2.22 2.13 2.13 2.04 1.82 1.67
0.22 0.24 0.17 0.09 0.08 0.09 0.13 0.23 0.65 0.94 0.94 0.93 0.77 1.15 1.36 0.96 0.88 0.85 0.76 0.78 0.81 0.76 0.74 0.84 1.00 1.12 1.26 1.41 1.50 1.62 1.74 1.85 1.92 1.97 1.99 1.95 1.92 2.00 2.08 2.13 1.98 1.91 1.67 1.51
0.14 0.16 0.11 0.08 0.07 0.11 0.22 0.28 0.32 0.53 0.64 0.97 1.16 1.38 1.21 0.92 0.88 0.81 0.83 0.80 0.79 0.73 0.70 0.71 0.81 0.91 0.96 1.06 1.18 1.29 1.43 1.57 1.73 1.73 1.86 1.84 1.73 1.81 1.98 2.07 1.99 1.90 1.83 1.73
0.08 0.09 0.11 0.08 0.10 0.15 0.18 0.22 0.29 0.44 0.68 0.99 1.19 1.49 1.63 1.42 1.20 1.02 1.07 0.95 0.84 0.73 0.66 0.67 0.67 0.68 0.67 0.77 1.03 1.14 1.29 1.46 1.51 1.48 1.46 1.40 1.47 1.64 1.78 1.78 1.70 1.82 1.90 1.92
0.07 0.08 0.11 0.14 0.14 0.16 0.19 0.22 0.29 0.37 0.46 0.76 1.18 1.36 1.13 1.20 1.17 1.16 1.03 0.95 0.90 0.79 0.64 0.62 0.68 0.70 0.69 0.73 0.94 0.98 1.06 1.25 1.31 1.28 1.20 1.20 1.27 1.37 1.46 1.48 1.49 1.65 1.73 1.80
0.09 0.10 0.15 0.20 0.18 0.16 0.18 0.21 0.31 0.48 0.52 0.62 0.94 1.16 0.82 0.90 0.91 0.82 0.77 0.77 0.68 0.65 0.58 0.57 0.67 0.77 0.87 0.95 0.94 0.87 0.88 0.94 1.08 1.12 1.11 1.14 1.17 1.16 1.15 1.17 1.27 1.38 1.45 1.50
0.12 0.16 0.28 0.49 0.50 0.30 0.24 0.21 0.25 0.32 0.42 0.49 0.76 1.06 0.88 0.86 0.92 0.85 0.81 0.81 0.71 0.65 0.61 0.65 0.74 0.76 0.78 0.92 1.03 0.91 0.88 0.94 1.06 1.09 1.14 1.22 1.22 1.14 1.06 1.08 1.15 1.17 1.15 1.18
0.11 0.13 0.24 0.49 0.45 0.34 0.30 0.27 0.28 0.34 0.44 0.46 0.53 0.80 0.94 0.94 0.92 0.89 0.85 0.76 0.75 0.70 0.61 0.65 0.75 0.88 0.88 0.86 0.96 0.91 0.88 0.94 1.05 1.21 1.41 1.43 1.33 1.22 1.13 1.07 1.08 1.09 1.05 1.12
0.12 0.11 0.13 0.18 0.23 0.31 0.33 0.27 0.27 0.28 0.31 0.47 0.44 0.57 0.83 0.91 0.83 0.86 0.89 0.68 0.61 0.70 0.68 0.62 0.71 0.87 0.95 0.94 0.93 0.89 0.94 0.99 1.11 1.34 1.47 1.47 1.42 1.33 1.26 1.18 1.13 1.10 1.13 1.14
0.20 0.18 0.19 0.20 0.26 0.32 0.33 0.28 0.23 0.20 0.21 0.27 0.34 0.55 0.66 0.61 0.69 0.73 0.70 0.68 0.69 0.79 0.75 0.69 0.68 0.72 0.86 0.93 0.97 1.00 1.08 1.14 1.18 1.20 1.25 1.34 1.41 1.40 1.35 1.19 1.13 1.19 1.22 1.20
0.34 0.34 0.30 0.30 0.30 0.37 0.41 0.33 0.27 0.24 0.20 0.27 0.45 0.67 0.66 0.63 0.70 0.65 0.58 0.59 0.74 0.80 0.71 0.66 0.68 0.71 0.78 0.81 0.87 1.08 1.10 1.05 1.05 1.13 1.21 1.30 1.36 1.34 1.28 1.15 1.16 1.19 1.19 1.23
0.32 0.40 0.40 0.41 0.51 0.66 0.44 0.26 0.26 0.28 0.25 0.23 0.35 0.49 0.56 0.53 0.57 0.58 0.53 0.52 0.54 0.62 0.60 0.61 0.68 0.75 0.76 0.72 0.69 0.78 0.88 0.95 0.97 1.04 1.14 1.22 1.26 1.33 1.39 1.33 1.25 1.28 1.30 1.27
0.29 0.44 0.49 0.55 0.69 0.58 0.37 0.33 0.35 0.39 0.42 0.34 0.39 0.46 0.55 0.58 0.59 0.68 0.58 0.53 0.51 0.48 0.52 0.64 0.75 0.72 0.71 0.71 0.70 0.78 0.90 1.00 1.09 1.09 1.15 1.19 1.26 1.40 1.47 1.39 1.36 1.41 1.39 1.29
0.35 0.44 0.60 0.65 0.83 0.77 0.58 0.42 0.38 0.48 0.85 0.60 0.48 0.50 0.59 0.64 0.74 0.83 0.66 0.59 0.56 0.57 0.62 0.61 0.61 0.60 0.64 0.74 0.84 0.91 1.06 1.22 1.27 1.23 1.23 1.32 1.38 1.49 1.58 1.62 1.60 1.54 1.51 1.44
0.76 0.70 0.65 0.75 0.90 0.78 0.57 0.46 0.53 0.91 1.13 0.76 0.64 0.60 0.66 0.76 0.76 0.72 0.66 0.57 0.56 0.59 0.62 0.62 0.67 0.69 0.72 0.76 0.94 1.13 1.22 1.27 1.29 1.29 1.30 1.43 1.50 1.62 1.80 1.96 1.89 1.84 1.79 1.76
1.00 1.03 0.96 1.00 1.17 1.16 0.70 0.59 0.87 1.08 0.87 0.81 0.80 0.78 0.75 0.67 0.61 0.60 0.64 0.60 0.56 0.58 0.70 0.75 0.85 0.89 0.80 0.81 0.95 1.13 1.22 1.25 1.36 1.39 1.43 1.48 1.61 1.66 1.81 2.17 2.17 2.19 2.19 2.04
1.11 1.21 1.31 1.30 1.30 1.05 0.93 0.99 1.02 1.06 0.94 0.88 0.74 0.67 0.64 0.64 0.63 0.67 0.77 0.77 0.67 0.61 0.69 0.75 0.88 0.95 0.97 1.03 1.14 1.30 1.34 1.40 1.48 1.58 1.68 1.73 1.79 1.92 2.02 2.17 2.21 2.25 2.23 2.12
1.07 0.99 1.31 1.46 1.35 1.23 1.09 1.00 1.04 1.20 1.09 0.90 0.75 0.70 0.70 0.69 0.63 0.61 0.66 0.72 0.71 0.68 0.74 0.82 0.88 1.08 1.20 1.24 1.32 1.42 1.52 1.61 1.74 1.89 1.98 2.01 2.02 2.02 2.06 2.21 2.20 2.21 2.22 2.14
1.00 1.00 1.32 1.57 1.52 1.51 1.30 1.02 0.95 0.98 0.91 0.78 0.79 0.77 0.78 0.81 0.74 0.65 0.63 0.65 0.72 0.81 0.88 0.94 1.05 1.19 1.24 1.32 1.42 1.54 1.72 1.89 1.97 2.00 2.01 2.00 2.04 2.15 2.22 2.19 2.17 2.22 2.27 2.25
1.18 1.15 1.42 1.72 1.53 1.50 1.40 1.12 0.98 0.86 0.77 0.75 0.89 0.93 0.85 0.84 0.85 0.78 0.74 0.77 0.82 0.90 1.00 1.10 1.19 1.28 1.32 1.46 1.63 1.74 1.90 2.09 2.24 2.20 2.12 2.13 2.17 2.24 2.26 2.22 2.15 2.19 2.13 2.05